Tracking 18980 objects as of 20-Feb-2018
HD Live streaming from Space Station
objects crossing your sky now

FENGYUN 1C DEB

Track FENGYUN 1C DEB now!
10-day predictions


NORAD ID: 33599
Int'l Code: 1999-025DCG
Perigee: 504.8 km
Apogee: 941.2 km
Inclination: 96.6 °
Period: 99.1 minutes
Semi major axis: 7094 km
RCS: 0.0095 m2 (small)
Launch date: May 10, 1999
Source: People's Republic of China (PRC)
Launch site: Taiyaun Space Center, China (TSC)

Note: This is SATELLITE DEBRIS
aabbcc
Your satellite tracking list
Your tracking list is empty




NASA's NSSDC Master Catalog

Two Line Element Set (TLE):
1 33599U 99025DCG 18049.85791177 +.00000598 +00000-0 +83742-4 0  9991
2 33599 096.6195 270.4553 0307580 274.3369 082.2750 14.52995985242234
Source of the keplerian elements: AFSPC